Weather History for Volk, WI

Change the Weather History Date:

Sunday, March 2, 2014

  Actual Average Record
Temperature  
Mean Temperature -4 °F -  
Max Temperature 4 °F 30 °F 44 °F (2008)
Min Temperature -13 °F 19 °F -13 °F (2014)
Degree Days  
Heating Degree Days 70    
Moisture  
Dew Point -20 °F    
Average Humidity 49    
Maximum Humidity 66    
Minimum Humidity 35    
Precipitation  
Precipitation 0.00 in - - ()
Snow  
Snow 0.00 in - - ()
Snow Depth 15.00 in    
Sea Level Pressure  
Sea Level Pressure 30.53 in    
Wind  
Wind Speed 9 mph (West)    
Max Wind Speed 14 mph    
Max Gust Speed -    
Visibility 10 miles    
Events      
Averages and records for this station are not official NWS values.
T = Trace of Precipitation, MM = Missing Value Source: NWS Daily Summary

Daily Weather History Graph

Daily Weather History Graph

Search for Another Location

Airport:

Trip Planner

Search our weather history database for the weather conditions in past years. The results will help you decide how hot, cold, wet, or windy it might be!

Date:

Astronomy

Mar. 02, 2014 Rise Set
Actual Time 6:36 AM CST 5:50 PM CST
Civil Twilight 6:07 AM CST 6:19 PM CST
Nautical Twilight 5:33 AM CST 6:53 PM CST
Astronomical Twilight 5:00 AM CST 7:26 PM CST
Moon 7:03 AM CST (3/2) 7:52 PM CST (3/2)
Length of Visible Light 12h 12m
Length of Day
11h 14m
Waxing Crescent, 3% of the Moon is Illuminated
Mar 2
Waxing Crescent
Mar 8
First Quarter
Mar 16
Full
Mar 23
Last Quarter
Mar 30
New

Hourly Weather History & Observations

Time (CST) Temp. Windchill Dew Point Humidity Pressure Visibility Wind Dir Wind Speed Gust Speed Precip Events Conditions
12:58 AM -3.5 °F -19.5 °F -13.4 °F 63% 30.51 in 10.0 mi West 9.2 mph - N/A   Partly Cloudy
1:58 AM -6.2 °F -21.7 °F -15.5 °F 64% 30.52 in 10.0 mi West 8.1 mph - N/A   Clear
2:58 AM -3.1 °F -17.9 °F -14.1 °F 59% 30.48 in 10.0 mi WNW 8.1 mph - N/A   Overcast
3:58 AM -4.4 °F -18.2 °F -17.1 °F 54% 30.50 in 10.0 mi WNW 6.9 mph - N/A   Scattered Clouds
4:58 AM -8.0 °F -21.0 °F -20.0 °F 56% 30.52 in 10.0 mi West 5.8 mph - N/A   Clear
5:58 AM -11.9 °F -27.3 °F -21.5 °F 63% 30.54 in 10.0 mi Variable 6.9 mph - N/A   Clear
6:58 AM -11.6 °F -23.4 °F -21.6 °F 61% 30.54 in 10.0 mi NW 4.6 mph - N/A   Clear
7:58 AM -7.6 °F -23.4 °F -22.0 °F 50% 30.56 in 10.0 mi WNW 8.1 mph - N/A   Partly Cloudy
8:58 AM -5.8 °F -24.4 °F -25.6 °F 38% 30.56 in 10.0 mi WNW 11.5 mph - N/A   Clear
9:58 AM -4.0 °F -21.2 °F -23.8 °F 38% 30.56 in 10.0 mi West 10.4 mph - N/A   Clear
10:58 AM -2.2 °F -18.9 °F -23.8 °F 35% 30.55 in 10.0 mi West 10.4 mph - N/A   Partly Cloudy
11:58 AM -0.4 °F -16.7 °F -20.2 °F 39% 30.55 in 10.0 mi West 10.4 mph - N/A   Partly Cloudy
12:58 PM 1.4 °F -12.5 °F -18.4 °F 39% 30.53 in 10.0 mi West 8.1 mph - N/A   Partly Cloudy
1:58 PM 3.2 °F -14.6 °F -18.4 °F 36% 30.49 in 10.0 mi West 13.8 mph - N/A   Scattered Clouds
2:58 PM 3.2 °F -14.6 °F -18.4 °F 36% 30.49 in 10.0 mi West 13.8 mph - N/A   Partly Cloudy
3:58 PM 4.3 °F -11.7 °F -17.3 °F 36% 30.49 in 10.0 mi West 11.5 mph - N/A   Clear
4:58 PM 2.8 °F -14.3 °F -18.6 °F 36% 30.51 in 10.0 mi West 12.7 mph - N/A   Clear
5:58 PM -1.7 °F -17.3 °F -20.6 °F 40% 30.51 in 10.0 mi West 9.2 mph - N/A   Clear
6:58 PM -7.4 °F -23.2 °F -22.5 °F 48% 30.53 in 10.0 mi West 8.1 mph - N/A   Clear
7:58 PM -5.8 °F -19.9 °F -22.0 °F 46% 30.52 in 10.0 mi WNW 6.9 mph - N/A   Clear
8:58 PM -9.2 °F -22.5 °F -22.0 °F 54% 30.52 in 10.0 mi West 5.8 mph - N/A   Clear
9:58 PM -12.3 °F -27.7 °F -23.1 °F 59% 30.55 in 10.0 mi West 6.9 mph - N/A   Clear
10:58 PM -13.2 °F -25.3 °F -23.3 °F 61% 30.56 in 10.0 mi West 4.6 mph - N/A   Clear
11:58 PM -13.9 °F -28.1 °F -22.2 °F 66% 30.59 in 10.0 mi West 5.8 mph - N/A   Clear